This demonstration page uses our WeatherBlox Daily Observations layout. Learn more.

Left ArrowRight Arrow

41.86663, -103.66717

Hourly Observations for January 4, 2016

Temp ( °F °C ) Dew Point ( °F °C ) Humidity (%) Winds ( mph kmh ) Pressure ( in mb ) Visibility ( mi km ) Precip ( " mm )
12:53 am 00:53 Clear 13 -10.6 8 -13.3 81 81 E 7 11 30.35 1028 10 16 N/A
1:53 am 01:53 Clear 10 -12.2 6 -14.4 84 84 SE 5 7 30.35 1028 10 16 N/A
2:53 am 02:53 Clear 11 -11.7 7 -13.9 84 84 E 3 6 30.33 1027 8 13 N/A
3:53 am 03:53 Clear 10 -12.2 6 -14.4 84 84 ESE 6 9 30.30 1026 8 13 N/A
4:53 am 04:53 Clear 12 -11.1 7 -13.9 80 80 E 12 19 30.30 1026 7 11 N/A
5:53 am 05:53 Clear 10 -12.2 6 -14.4 84 84 ESE 10 17 30.30 1026 7 11 N/A
6:53 am 06:53 Clear with Mist and Fog 10 -12.2 7 -13.9 87 87 SE 7 11 30.31 1026 6 10 N/A
7:53 am 07:53 Hazy 9 -12.8 4 -15.6 80 80 N N/A 30.31 1027 4 6 N/A
8:28 am 08:28 Partly Cloudy with Mist and Fog 10 -12 7 -14 85 85 N N/A 30.45 1031 3 4 N/A
8:31 am 08:31 Mostly Cloudy with Mist and Fog 11 -11.7 7 -13.9 84 84 N N/A 30.45 1031 1 2 N/A
8:34 am 08:34 Mostly Cloudy with Freezing Fog 10 -12 7 -14 85 85 N N/A 30.45 1031 1 1 N/A
8:43 am 08:43 Partly Cloudy with Mist and Fog 12 -11.1 8 -13.3 84 84 E 3 6 30.45 1031 1 2 N/A
8:46 am 08:46 Hazy 12 -11 7 -14 79 79 E 5 7 30.45 1031 3 5 N/A
8:53 am 08:53 Partly Cloudy with Mist and Fog 11 -11.7 8 -13.3 88 88 ESE 3 6 30.30 1026 4 6 N/A
9:53 am 09:53 Hazy 14 -10 9 -12.8 80 80 ESE 5 7 30.30 1026 6 10 N/A
10:53 am 10:53 Sunny 17 -8.3 11 -11.7 77 77 ESE 8 13 30.27 1025 7 11 N/A
11:53 am 11:53 Sunny 21 -6.1 13 -10.6 71 71 SE 5 7 30.22 1023 8 13 N/A
12:53 pm 12:53 Sunny 24 -4.4 16 -8.9 71 71 SE 8 13 30.16 1022 8 13 N/A
1:53 pm 13:53 Sunny 26 -3.3 18 -7.8 71 71 ESE 16 26 30.15 1021 8 13 N/A
2:53 pm 14:53 Sunny 27 -2.8 19 -7.2 72 72 ESE 15 24 30.13 1020 9 14 N/A
3:53 pm 15:53 Sunny 28 -2.2 21 -6.1 75 75 ESE 12 19 30.13 1020 10 16 N/A
4:53 pm 16:53 Clear 26 -3.3 19 -7.2 75 75 ESE 13 20 30.12 1020 10 16 N/A
5:53 pm 17:53 Clear 23 -5 17 -8.3 78 78 ESE 13 20 30.12 1020 10 16 N/A
6:53 pm 18:53 Clear 21 -6.1 16 -8.9 81 81 E 10 17 30.13 1020 10 16 N/A
7:53 pm 19:53 Clear 20 -6.7 15 -9.4 81 81 E 9 15 30.13 1020 10 16 N/A
8:53 pm 20:53 Clear 23 -5 18 -7.8 81 81 E 10 17 30.09 1019 10 16 N/A
9:53 pm 21:53 Clear 20 -6.7 15 -9.4 81 81 ESE 9 15 30.08 1019 10 16 N/A
10:53 pm 22:53 Clear 15 -9.4 11 -11.7 84 84 N N/A 30.07 1018 10 16 N/A
11:53 pm 23:53 Clear with Mist and Fog 12 -11.1 10 -12.2 92 92 NW 7 11 30.06 1018 6 10 N/A

Powered by AerisWeather